www.pogodaiklimat.ru

Погода и климат >> Архив погоды >> Австралия >> Западная Австралия >> Уиндем


ПОГОДА в Уиндеме

  • Прогноз погоды в Уиндеме
  • Монитор погоды в Уиндеме

АРХИВ ПОГОДЫ в Уиндеме

Время (UTC), дата Ветер
(напр.,м/с)
 
Видим.   Явления Облачность Т
(С)
Тd
(С)
f
(%)
Тe
(С)
Тes
(С)
Комфортность P
(гПа)
Po
(гПа)
Тmin
(С)
Tmax
(С)
R
(мм)
R24
(мм)
S
(см)
04 11.07 ЮВ 4 н/о н/о +31.2 +3.3 17 +29 +29 жарко 1017.3 1016.8
05 11.07 В 5 н/о н/о +31.4 +3.4 17 +29 +29 жарко 1016.1 1015.6
06 11.07 В 4 н/о н/о +31.1 +3.2 17 +29 +29 жарко 1015.3 1014.8
07 11.07 ЮВ 4 н/о н/о +31.1 +2.3 16 +29 +29 жарко 1015.0 1014.5
08 11.07 ЮВ 4 н/о н/о +30.8 +3.0 17 +28 +28 жарко 1015.3 1014.8
09 11.07 ЮВ 5 н/о н/о +28.3 +2.5 19 +26 +26 жарко 1015.9 1015.4
10 11.07 В 4 н/о н/о +24.5 +2.0 23 +23 +23 комфорт 1016.8 1016.3
11 11.07 В 3 н/о н/о +23.5 +2.4 25 +23 +23 комфорт 1018.0 1017.5
12 11.07 В 3 н/о н/о +22.5 +2.1 26 +22 +22 комфорт 1018.7 1018.2
13 11.07 В 3 н/о н/о +21.6 +1.8 27 +21 +21 комфорт 1018.8 1018.3 +32.5
14 11.07 СВ 3 н/о н/о +21.5 +1.2 26 +21 +21 комфорт 1018.7 1018.2
15 11.07 штиль 0 н/о н/о +18.7 +2.1 33 +19 +19 1018.6 1018.1
16 11.07 штиль 0 н/о н/о +19.1 +3.7 36 +19 +19 1018.5 1018.0
17 11.07 штиль 0 н/о н/о +16.7 +1.2 35 +17 +17 1018.2 1017.7
18 11.07 штиль 0 н/о н/о +16.7 +3.1 40 +17 +17 1017.9 1017.4
19 11.07 штиль 0 н/о н/о +17.5 +3.4 39 +18 +18 1017.8 1017.3
20 11.07 СВ 3 н/о н/о +14.8 +3.0 45 +14 +14 1017.8 1017.3
21 11.07 В 3 н/о н/о +17.0 +3.0 39 +17 +17 1017.7 1017.2
22 11.07 В 3 н/о н/о +19.0 +4.7 39 +20 +20 1018.0 1017.5
23 11.07 В 2 н/о н/о +22.9 +5.3 32 +23 +23 комфорт 1018.7 1018.2
00 12.07 В 5 н/о н/о +27.3 +5.0 24 +26 +26 жарко 1018.8 1018.3
01 12.07 В 8 н/о н/о +28.9 +6.3 24 +28 +28 жарко 1018.8 1018.3 +14.3
02 12.07 В 7 н/о н/о +29.8 +8.8 27 +29 +29 жарко 1017.9 1017.4
03 12.07 В 6 н/о н/о +30.9 +8.6 25 +30 +30 жарко 1017.0 1016.5
04 12.07 В 6 н/о н/о +31.6 +9.2 25 +31 +31 жарко 1015.8 1015.3
05 12.07 ЮВ 6 н/о н/о +32.0 +9.5 25 +31 +31 жарко 1014.7 1014.2
06 12.07 ЮВ 5 н/о н/о +32.3 +9.2 24 +31 +31 жарко 1013.9 1013.4
07 12.07 В 5 н/о н/о +32.3 +7.9 22 +31 +31 жарко 1013.5 1013.0
08 12.07 В 6 н/о н/о +32.0 +8.3 23 +31 +31 жарко 1013.8 1013.3
09 12.07 В 4 н/о н/о +29.4 +7.3 25 +28 +28 жарко 1014.6 1014.1
10 12.07 В 4 н/о н/о +25.5 +7.1 31 +25 +25 комфорт 1015.6 1015.1
11 12.07 В 4 н/о н/о +23.8 +5.7 31 +24 +24 комфорт 1016.4 1015.9
12 12.07 В 4 н/о н/о +23.2 +4.7 30 +23 +23 комфорт 1017.2 1016.7
13 12.07 В 3 н/о н/о +23.1 +4.6 30 +23 +23 комфорт 1017.4 1016.9 +33.1
14 12.07 В 2 н/о н/о +22.4 +4.5 31 +23 +23 комфорт 1017.3 1016.8
15 12.07 В 2 н/о н/о +19.0 +5.5 41 +20 +20 1017.3 1016.8
16 12.07 В 3 н/о н/о +20.4 +4.4 35 +21 +21 комфорт 1017.5 1017.0
17 12.07 В 3 н/о н/о +21.7 +3.9 31 +22 +22 комфорт 1017.2 1016.7
18 12.07 В 3 н/о н/о +20.7 +3.4 32 +22 +22 комфорт 1017.3 1016.8
19 12.07 В 3 н/о н/о +20.4 +3.2 32 +21 +21 комфорт 1017.2 1016.7
20 12.07 В 4 н/о н/о +20.1 +2.9 32 +21 +21 комфорт 1017.6 1017.1
21 12.07 В 4 н/о н/о +18.6 +2.9 35 +19 +19 1017.7 1017.2
22 12.07 В 5 н/о н/о +19.9 +2.3 31 +20 +20 1018.3 1017.8
23 12.07 В 5 н/о н/о +23.9 +1.5 23 +23 +23 комфорт 1018.7 1018.2
00 13.07 В 8 н/о н/о +26.9 +0.6 18 +25 +25 комфорт 1019.2 1018.7
01 13.07 В 10 н/о н/о +28.2 0.0 16 +26 +26 жарко 1019.3 1018.8 +16.3
02 13.07 В 8 н/о н/о +29.7 +0.3 15 +27 +27 жарко 1018.7 1018.2
03 13.07 В 9 н/о н/о +30.7 +0.2 14 +28 +28 жарко 1017.8 1017.3
04 13.07 В 10 н/о н/о +31.4 -0.3 13 +28 +28 жарко 1016.6 1016.1
05 13.07 В 9 н/о н/о +32.0 +0.2 13 +29 +29 жарко 1015.5 1015.0
06 13.07 В 7 н/о н/о +32.2 +0.3 13 +29 +29 жарко 1014.6 1014.1
07 13.07 ЮВ 5 н/о н/о +31.7 +1.0 14 +29 +29 жарко 1014.4 1013.9
08 13.07 ЮВ 7 н/о н/о +30.6 +0.1 14 +28 +28 жарко 1014.7 1014.2
09 13.07 ЮВ 8 н/о н/о +28.4 +0.2 16 +26 +26 жарко 1015.4 1014.9
10 13.07 ЮВ 5 н/о н/о +26.3 -0.7 17 +24 +24 комфорт 1016.1 1015.6
11 13.07 ЮВ 2 н/о н/о +22.4 -0.3 22 +22 +22 комфорт 1016.8 1016.3
12 13.07 ЮВ 3 н/о н/о +21.8 +0.4 24 +21 +21 комфорт 1017.4 1016.9
13 13.07 В 3 н/о н/о +21.2 +0.4 25 +21 +21 комфорт 1017.8 1017.3 +32.8
14 13.07 В 3 н/о н/о +21.5 -0.5 23 +21 +21 комфорт 1017.9 1017.4
15 13.07 В 3 н/о н/о +20.4 -1.4 23 +21 +21 комфорт 1017.6 1017.1
17 13.07 В 3 н/о н/о +17.4 -1.8 27 +18 +18 1017.4 1016.9
18 13.07 В 4 н/о н/о +17.0 -2.1 27 +17 +17 1017.3 1016.8
19 13.07 В 6 н/о н/о +20.3 +0.2 26 +20 +20 1017.2 1016.7
20 13.07 В 6 н/о н/о +21.0 -0.9 23 +21 +21 комфорт 1017.7 1017.2
21 13.07 В 6 н/о н/о +20.3 -0.9 24 +20 +20 1018.1 1017.6
22 13.07 В 8 н/о н/о +20.3 -0.3 25 +20 +20 1018.8 1018.3
23 13.07 В 9 н/о н/о +22.2 +0.7 24 +22 +22 комфорт 1019.1 1018.6
00 14.07 В 10 н/о н/о +24.0 +1.0 22 +23 +23 комфорт 1019.9 1019.4
01 14.07 ЮВ 8 н/о н/о +25.5 +0.9 20 +24 +24 комфорт 1020.1 1019.6 +15.1
02 14.07 ЮВ 7 н/о н/о +25.5 +0.9 20 +24 +24 комфорт 1019.7 1019.2
03 14.07 ЮВ 6 н/о н/о +26.3 +1.6 20 +25 +25 комфорт 1018.6 1018.1
04 14.07 ЮВ 7 н/о н/о +27.4 +1.0 18 +25 +25 комфорт 1017.5 1017.0
05 14.07 ЮВ 7 н/о н/о +28.4 +1.8 18 +26 +26 жарко 1016.5 1016.0
06 14.07 ЮВ 6 н/о н/о +28.6 +2.0 18 +26 +26 жарко 1015.5 1015.0
07 14.07 ЮВ 6 н/о н/о +28.0 +2.2 19 +26 +26 жарко 1015.1 1014.6
08 14.07 ЮВ 7 н/о н/о +27.3 +2.4 20 +26 +26 жарко 1015.3 1014.8
09 14.07 ЮВ 7 н/о н/о +25.4 +2.2 22 +24 +24 комфорт 1015.9 1015.4
10 14.07 ЮВ 6 н/о н/о +23.9 +2.1 24 +23 +23 комфорт 1016.7 1016.2
11 14.07 ЮВ 3 н/о н/о +19.7 +1.7 30 +20 +20 1017.7 1017.2
12 14.07 ЮВ 4 н/о н/о +18.0 +1.5 33 +18 +18 1018.2 1017.7
13 14.07 ЮВ 4 н/о н/о +18.1 +2.4 35 +18 +18 1018.5 1018.0 +29.5
14 14.07 ЮВ 4 н/о н/о +17.2 +1.6 35 +17 +17 1018.8 1018.3
15 14.07 В 7 н/о н/о +21.1 +1.4 27 +21 +21 комфорт 1018.7 1018.2
16 14.07 В 4 н/о н/о +16.2 -0.9 31 +16 +16 1018.8 1018.3
17 14.07 ЮВ 3 н/о н/о +16.0 -0.7 32 +16 +16 1018.6 1018.1
18 14.07 ЮВ 2 н/о н/о +14.7 -1.4 33 +15 +15 1018.4 1017.9
19 14.07 ЮВ 3 н/о н/о +13.2 -1.9 35 +12 +12 1018.4 1017.9
20 14.07 ЮВ 3 н/о н/о +13.0 -2.1 35 +12 +12 1018.6 1018.1
21 14.07 В 5 н/о н/о +16.9 -2.2 27 +16 +16 1018.9 1018.4
22 14.07 В 3 н/о н/о +13.6 -2.8 32 +13 +13 1019.4 1018.9
23 14.07 В 7 н/о н/о +19.3 -2.9 22 +19 +19 1019.7 1019.2
00 15.07 ЮВ 9 н/о н/о +20.8 -4.4 18 +20 +20 1020.3 1019.8
01 15.07 ЮВ 9 н/о н/о +22.3 -3.9 17 +21 +21 комфорт 1020.1 1019.6 +13.1
02 15.07 ЮВ 7 н/о н/о +23.3 -3.9 16 +21 +21 комфорт 1019.9 1019.4
03 15.07 ЮВ 8 н/о н/о +23.6 -3.7 16 +22 +22 комфорт 1018.9 1018.4
04 15.07 ЮВ 6 н/о н/о +25.0 -2.5 16 +23 +23 комфорт 1017.6 1017.1
05 15.07 ЮВ 5 н/о н/о +26.0 -1.7 16 +24 +24 комфорт 1016.0 1015.5
06 15.07 ЮВ 6 н/о н/о +26.0 -1.7 16 +24 +24 комфорт 1014.9 1014.4
07 15.07 ЮВ 6 н/о н/о +26.3 -1.5 16 +24 +24 комфорт 1014.4 1013.9
08 15.07 ЮВ 6 н/о н/о +26.2 -0.8 17 +24 +24 комфорт 1014.3 1013.8
09 15.07 ЮВ 6 н/о н/о +24.1 -0.9 19 +23 +23 комфорт 1014.8 1014.3
10 15.07 ЮВ 6 н/о н/о +23.3 -0.9 20 +22 +22 комфорт 1015.8 1015.3
11 15.07 ЮВ 6 н/о н/о +23.5 -1.4 19 +22 +22 комфорт 1016.6 1016.1
12 15.07 ЮВ 4 н/о н/о +20.5 -1.3 23 +21 +21 комфорт 1017.3 1016.8
13 15.07 В 3 н/о н/о +18.9 -1.0 26 +19 +19 1017.7 1017.2 +27.1
14 15.07 В 2 н/о н/о +19.0 -0.9 26 +20 +20 1017.9 1017.4
15 15.07 В 3 н/о н/о +17.9 -0.8 28 +18 +18 1018.0 1017.5
16 15.07 В 3 н/о н/о +17.1 -2.0 27 +17 +17 1018.0 1017.5
17 15.07 В 3 н/о н/о +16.6 -3.5 25 +17 +17 1017.6 1017.1
18 15.07 В 5 н/о н/о +18.8 -4.0 21 +18 +18 1017.1 1016.6
19 15.07 В 6 н/о н/о +19.9 -5.8 17 +19 +19 1016.7 1016.2
20 15.07 В 6 н/о н/о +20.1 -5.7 17 +19 +19 1016.8 1016.3
21 15.07 В 5 н/о н/о +20.2 -6.4 16 +20 +20 1017.2 1016.7
22 15.07 В 5 н/о н/о +20.1 -5.7 17 +20 +20 1017.9 1017.4
23 15.07 В 6 н/о н/о +21.3 -5.5 16 +20 +20 1018.8 1018.3
00 16.07 В 9 н/о н/о +23.1 -5.8 14 +21 +21 комфорт 1019.1 1018.6
01 16.07 В 9 н/о н/о +23.9 -6.2 13 +22 +22 комфорт 1019.1 1018.6 +15.5
02 16.07 ЮВ 7 н/о н/о +24.8 -5.5 13 +23 +23 комфорт 1018.7 1018.2
03 16.07 ЮВ 6 н/о н/о +26.0 -5.6 12 +23 +23 комфорт 1017.5 1017.0
04 16.07 ЮВ 5 н/о н/о +27.2 -4.6 12 +24 +24 комфорт 1016.4 1015.9
05 16.07 ЮВ 5 н/о н/о +28.1 -3.9 12 +25 +25 комфорт 1015.5 1015.0
06 16.07 Ю 6 н/о н/о +28.5 -2.6 13 +26 +26 жарко 1014.7 1014.2
07 16.07 ЮВ 6 н/о н/о +28.2 -2.8 13 +25 +25 комфорт 1014.5 1014.0
08 16.07 ЮВ 6 н/о н/о +27.5 -3.3 13 +25 +25 комфорт 1014.6 1014.1
09 16.07 ЮВ 5 н/о н/о +25.7 -3.8 14 +23 +23 комфорт 1015.0 1014.5
10 16.07 В 4 н/о н/о +21.6 -3.0 19 +21 +21 комфорт 1015.6 1015.1
11 16.07 ЮВ 2 н/о н/о +21.4 -2.5 20 +21 +21 комфорт 1016.2 1015.7
12 16.07 ЮВ 2 н/о н/о +21.3 -2.5 20 +21 +21 комфорт 1016.7 1016.2
13 16.07 ЮВ 2 н/о н/о +18.0 -2.3 25 +19 +19 1016.9 1016.4 +29.2
14 16.07 ЮВ 3 н/о н/о +17.9 -1.9 26 +18 +18 1016.9 1016.4
15 16.07 ЮВ 3 н/о н/о +17.4 -1.8 27 +17 +17 1016.7 1016.2
16 16.07 ЮВ 4 н/о н/о +18.3 -2.6 24 +18 +18 1016.7 1016.2
17 16.07 ЮВ 4 н/о н/о +18.3 -2.6 24 +18 +18 1016.3 1015.8
18 16.07 ЮВ 3 н/о н/о +18.1 -2.2 25 +18 +18 1015.8 1015.3
19 16.07 В 2 н/о н/о +18.9 -1.5 25 +19 +19 1016.0 1015.5
20 16.07 В 3 н/о н/о +16.3 -2.7 27 +16 +16 1016.1 1015.6
21 16.07 ЮВ 2 н/о н/о +15.3 -2.2 30 +15 +15 1016.5 1016.0
22 16.07 ЮВ 3 н/о н/о +13.8 -2.2 33 +13 +13 1016.7 1016.2
23 16.07 В 4 н/о н/о +20.9 -0.4 24 +21 +21 комфорт 1017.3 1016.8
00 17.07 В 8 н/о н/о +23.5 -2.2 18 +22 +22 комфорт 1017.8 1017.3
01 17.07 В 8 н/о н/о +24.9 -2.6 16 +23 +23 комфорт 1017.6 1017.1 +13.5
03 17.07 В 7 н/о н/о +27.4 -2.4 14 +25 +25 комфорт 1016.1 1015.6
04 17.07 В 5 н/о н/о +28.9 -2.3 13 +26 +26 жарко 1015.0 1014.5
05 17.07 В 5 н/о н/о +29.2 -3.1 12 +26 +26 жарко 1013.8 1013.3
06 17.07 ЮВ 3 н/о н/о +29.5 -2.9 12 +26 +26 жарко 1012.9 1012.4
07 17.07 Ю 4 н/о н/о +29.8 -3.8 11 +26 +26 жарко 1012.3 1011.8
08 17.07 ЮВ 5 н/о н/о +29.5 -2.9 12 +26 +26 жарко 1012.5 1012.0
09 17.07 ЮВ 6 н/о н/о +27.4 -2.4 14 +25 +25 комфорт 1013.2 1012.7
10 17.07 ЮВ 5 н/о н/о +25.8 -1.9 16 +24 +24 комфорт 1013.9 1013.4
11 17.07 В 3 н/о н/о +22.3 -1.7 20 +21 +21 комфорт 1014.6 1014.1
12 17.07 В 2 н/о н/о +22.7 -1.4 20 +22 +22 комфорт 1015.2 1014.7
13 17.07 В 2 н/о н/о +22.0 -2.0 20 +21 +21 комфорт 1015.0 1014.5 +31.3
14 17.07 В 2 н/о н/о +18.3 -2.0 25 +19 +19 1015.1 1014.6
15 17.07 штиль 0 н/о н/о +17.8 -0.9 28 +18 +18 1015.1 1014.6
16 17.07 В 1 н/о н/о +16.3 -0.8 31 +18 +18 1015.0 1014.5
17 17.07 В 2 н/о н/о +16.7 -0.5 31 +17 +17 1014.6 1014.1
18 17.07 штиль 0 н/о н/о +15.5 -0.3 34 +16 +16 1014.5 1014.0
19 17.07 штиль 0 н/о н/о +16.2 +0.3 34 +16 +16 1014.6 1014.1
20 17.07 штиль 0 н/о н/о +15.8 +0.4 35 +16 +16 1014.9 1014.4
21 17.07 В 2 н/о н/о +14.9 -0.4 35 +15 +15 1015.2 1014.7
22 17.07 В 2 н/о н/о +14.7 +0.2 37 +15 +15 1015.7 1015.2
23 17.07 В 4 н/о н/о +21.8 +2.0 27 +22 +22 комфорт 1016.3 1015.8
00 18.07 В 7 н/о н/о +25.0 +0.5 20 +24 +24 комфорт 1017.0 1016.5
01 18.07 В 8 н/о н/о +26.5 -0.5 17 +24 +24 комфорт 1016.8 1016.3 +14.5
02 18.07 В 7 н/о н/о +28.0 -1.0 15 +25 +25 комфорт 1016.2 1015.7
03 18.07 В 6 н/о н/о +29.6 -0.7 14 +27 +27 жарко 1015.3 1014.8

 

Местоположение метеостанции Уиндем (Западная Австралия, Австралия): широта -15.50 долгота 128.15 высота над уровнем моря 4 м.

В архиве по умолчанию представлена погода в Уиндеме за последнюю неделю. Архивные данные за месяц целиком и за предыдущие месяцы, начиная с января 2011 года, Вы можете получить, выбрав интересующий диапазон дат из раскрывающегося списка и нажав кнопку "Ввод!".


*Определитесь, кто Вы:
робот инопланетянин человек

Внимание! Время в таблицах - всемирное. Для получения местного времени необходимо прибавить поправку, которая равна 8 ч.

Смотрите также архив погоды в соседних городах и на ближайших метеорологических станциях:

Погода в Кунунарре (Западная Австралия, Австралия) (68 км)
Погода в Аэропорту Аргайл (Западная Австралия, Австралия) (130 км)
Погода в Порт Китс (Северная территория, Австралия) (203 км)
Погода в Калумбуру (Западная Австралия, Австралия) (209 км)
Погода в Трускотте (Западная Австралия, Австралия) (247 км)
Погода на Острове Троутон (Западная Австралия, Австралия) (290 км)
Погода в Манбуллу Ксиро (Северная территория, Австралия) (291 км)
Погода в Холс Крик (Западная Австралия, Австралия) (308 км)
Погода в Виктория-Ривер (Северная территория, Австралия) (323 км)
Погода на Маяке Кейп-Дон (Северная территория, Австралия) (375 км)

Пояснения к столбцам:

Ветер - указаны скорость ветра в м/с - средняя за 10 мин, порывы в срок и между сроками (в фигурных скобках) и направление, откуда дует ветер: С - северный, СВ - северо-восточный, В - восточный, ЮВ - юго-восточный, Ю - южный, ЮЗ - юго-западный, З - западный, СЗ - северо-западный.
Видимость - горизонтальная дальность видимости в метрах или километрах. При видимости от 1 до 10 км при отсутствии осадков обычно наблюдается дымка, при ухудшении видимости до 1 км и менее - туман. В сухую погоду видимость может ухудшаться дымом, пылью или мглою.
Явления - указаны атмосферные явления, наблюдавшиеся в срок или в последний час перед сроком; фигурными скобками обозначены явления, наблюдавшиеся между сроками (за 1-3 часа до срока); квадратными скобками обозначены град или гололедные отложения с указанием их диаметра в мм.
Облачность - указаны через наклонную черту общая и нижняя облачность в баллах и высота нижней границы облаков в метрах; квадратными скобками обозначены формы облаков: Ci - перистые, Cs - перисто-слоистые, Cc - перисто-кучевые, Ac - высококучевые, As - высокослоистые, Sc - слоисто-кучевые, Ns - слоисто-дождевые, Cu - кучевые, Cb - кучево-дождевые. Подробнее классификацию облаков см. в Атласе облаков (PDF).
T - Температура воздуха - температура, измеренная на высоте 2 м над землей.
Td - Температура точки росы - температура, при понижении до которой содержащийся в воздухе водяной пар достигнет насыщения.
f - Относительная влажность воздуха - влажноcть воздуха, измеренная на высоте 2 м над землей.
Te - Эффективная температура - температура, которую ощущает одетый по сезону человек в тени. Характеристика душности погоды. При расчете учитывается влияние влажности воздуха и скорости ветра на теплоощущения человека.
Tes - Эффективная температура на солнце - температура, которую ощущает человек, с поправкой на солнечный нагрев. Характеристика знойности погоды. Зависит от высоты солнца над горизонтом, облачности и скорости ветра. Ночью, в пасмурную погоду, а также при ветре 12 м/с и более поправка равна нулю.
P - Атмосферное давление - приведенное к уровню моря атмосферное давление.
Po - Атмосферное давление - измеренное на уровне метеостанции атмосферное давление.
Tmin - Минимальная температура - минимум температуры воздуха на высоте 2 м над землей.
Tmax - Максимальная температура - максимум температуры воздуха на высоте 2 м над землей.
R - Количество осадков - Количество выпавших осадков за период времени, мм. При наведении курсора мыши на число - период времени, за который выпало указанное количество осадков.
R24 - Количество осадков - Количество выпавших осадков за 24 часа, мм.
S - Снежный покров - Высота снежного покрова, см. При наведении курсора мыши на число - состояние снежного покрова и степень покрытия местности в баллах.